[[{"header":{"parameterUnit":"m.s-1","parameterCategory":1,"la1":30.2991,"la2":30.254,"lo1":-89.0895,"lo2":-89.0444,"dy":0.0017,"dx":0.0017,"nx":28,"ny":28,"refTime":"2025-01-17T09:00:00:Z","depth":0,"parameterNumber":2,"parameterNumberName":"U-component_of_WINDS"},"data":[0,0,0,0,0,0,0,0,0,0,0,0,0,0,0,0,0,0,0,0,0,0,0,0,0,0,0,0,0,0,0,0,0,0,0,0,0,0,0,0,0,0,0,0,0,0,0,0,0,0,0,0,0,0,0,0,0,0,2.051,2.051,0,2.0517,2.0517,2.0517,2.0455,2.0453,2.0451,2.045,2.0459,2.0461,2.0463,0,0,0,0,0,0,0,0,0,0,0,0,0,2.0447,2.0448,2.051,2.051,2.0511,2.0517,2.0517,2.0517,2.0455,2.0453,2.0451,2.0449,2.0459,2.0461,2.0463,0,0,0,0,0,0,0,0,0,0,0,0,0,2.0466,2.0449,2.051,2.048,2.0478,2.0517,2.0517,2.0517,2.0456,2.0453,2.045,2.0448,2.0458,2.0461,2.0464,2.0533,0,0,2.0472,2.0473,0,0,0,0,0,0,0,0,2.0465,2.0468,2.0485,2.0482,2.0479,2.0482,2.0498,2.0523,2.0456,2.0464,2.045,2.0447,2.0469,2.0471,2.0478,2.0534,2.0534,2.0472,2.0474,2.0475,2.0476,0,0,0,0,0,0,0,2.0464,2.0468,2.0513,2.0485,2.0482,2.0467,2.0467,2.0503,2.0481,2.0463,2.0459,2.046,2.0468,2.0476,2.0478,2.0534,2.0472,2.0475,2.0477,2.0478,2.0649,2.0652,0,0,0,0,0,0,2.0466,2.0467,2.0513,2.0513,2.0466,2.0471,2.0471,2.0484,2.0481,2.0478,2.0462,2.0457,2.0472,2.0475,2.0478,2.0561,2.0475,2.0478,2.048,2.0646,2.065,2.0653,0,0,0,0,0,0,2.0465,2.0471,2.0513,2.0489,2.0493,2.0475,2.049,2.0486,2.0494,2.048,2.0476,2.0474,2.047,2.0474,2.052,2.056,2.0479,2.0482,2.0643,2.0647,2.0651,2.0726,0,0,0,0,0,0,2.0463,2.0471,2.0496,2.049,2.0495,2.0554,2.0493,2.0488,2.0498,2.0492,2.049,2.0488,2.0468,2.0516,2.0523,2.0563,2.0484,2.0639,2.0645,2.065,2.072,2.0732,2.0743,0,0,0,0,0,2.0461,2.0517,2.0498,2.0504,2.0526,2.0556,2.0559,2.0535,2.0502,2.0528,2.052,2.0488,2.0555,2.0522,2.0529,2.057,2.0637,2.0643,2.065,2.0715,2.073,2.0742,0,0,0,0,0,0,2.0529,2.0515,2.0494,2.0549,2.0554,2.0546,2.0578,2.0551,2.0567,2.056,2.053,2.053,2.0582,2.058,2.0544,2.0638,2.059,2.0598,2.0637,2.0651,2.0663,2.0662,2.0486,0,0,0,0,0,2.055,2.0575,2.0562,2.0612,2.0616,2.0597,2.0609,2.059,2.0594,2.0596,2.0591,2.0597,2.062,2.0635,2.0655,2.0719,2.0719,2.0751,2.0762,2.0772,2.078,2.0815,2.0829,2.0674,2.0674,2.0674,0,0,2.0594,2.059,2.0607,2.0625,2.0627,2.0655,2.0599,2.063,2.065,2.0601,2.0644,2.0641,2.0646,2.0702,2.0727,2.0702,2.0822,2.078,2.0788,2.079,2.0823,2.0838,2.0851,2.0679,2.0678,2.0677,0,0,2.0689,2.0687,2.0729,2.0733,2.0736,2.0723,2.0733,2.0729,2.0725,2.0767,2.0732,2.0756,2.0795,2.0801,2.0809,2.0907,2.088,2.0915,2.0975,2.101,2.1022,2.1033,2.107,2.1083,2.0922,2.0923,2.0923,0,2.0743,2.0782,2.0755,2.0789,2.0799,2.0755,2.0798,2.0803,2.0813,2.0821,2.0794,2.0843,2.0843,2.09,2.0925,2.0932,2.0944,2.0915,2.1023,2.1033,2.1043,2.1077,2.1091,2.0927,2.0926,2.0926,2.0926,0,2.085,2.0878,2.0912,2.0923,2.0936,2.0975,2.0954,2.0971,2.0952,2.0942,2.0988,2.0987,2.1006,2.1018,2.0999,2.1074,2.1059,2.1028,2.0979,2.1062,2.1095,2.1107,2.0933,2.0932,2.093,2.0929,0,0,2.0987,2.0983,2.0996,2.1001,2.1002,2.1023,2.1061,2.1079,2.1095,2.1104,2.1136,2.117,2.1142,2.1151,2.1133,2.1163,2.1243,2.1128,2.1128,2.1151,2.1327,2.1351,2.1367,2.1225,2.1227,2.1229,2.1327,0,2.1081,2.1143,2.112,2.1185,2.1211,2.1171,2.1204,2.1209,2.1201,2.1224,2.1215,2.1241,2.1201,2.1206,2.1235,2.1228,2.1279,2.122,2.1255,2.1257,2.1256,2.1384,2.1409,2.1502,2.1339,2.1341,2.1343,0,2.1197,2.1211,2.1279,2.1276,2.1287,2.1316,2.1333,2.1354,2.1359,2.1352,2.1363,2.1338,2.1376,2.1328,2.1381,2.1341,2.1354,2.1354,2.1357,2.136,2.1306,2.1391,2.153,2.1545,2.1362,2.1361,2.1359,0,2.1292,2.1327,2.1373,2.1378,2.1376,2.1399,2.1399,2.1402,2.1415,2.143,2.1438,2.1457,2.1468,2.1484,2.1466,2.1431,2.1522,2.1471,2.1518,2.1519,2.1539,2.1538,2.1684,2.1546,2.1546,2.1546,2.1546,0,2.14,2.1443,2.1415,2.1443,2.1491,2.1465,2.1513,2.151,2.1513,2.154,2.1507,2.1533,2.1507,2.1532,2.1518,2.1565,2.157,2.1566,2.1562,2.157,2.157,2.1578,2.1572,2.155,2.1549,2.1548,2.1547,0,2.1514,2.1497,2.1544,2.1539,2.1538,2.1574,2.157,2.1597,2.1587,2.1622,2.1629,2.1615,2.1642,2.1625,2.1654,2.1644,2.1706,2.1693,2.1704,2.1701,2.1749,2.1745,2.1905,2.1926,2.1774,2.1776,2.1777,0,2.1584,2.1616,2.1614,2.163,2.1633,2.1659,2.1672,2.1648,2.1664,2.1673,2.1699,2.1724,2.1742,2.1789,2.1781,2.1803,2.1791,2.1845,2.1794,2.1801,2.1793,2.1792,2.1796,2.1856,2.1858,2.1859,2.186,0,2.171,2.17,2.172,2.1739,2.1756,2.1769,2.1779,2.1794,2.177,2.179,2.1817,2.1832,2.1861,2.1887,2.1905,2.1907,2.1881,2.1877,2.1889,2.1897,2.1903,2.1902,2.1734,2.1873,2.1872,2.1871,2.187,2.187,2.1805,2.1832,2.1836,2.186,2.1865,2.1876,2.1901,2.1895,2.1917,2.1939,2.1923,2.1957,2.1963,2.1985,2.1991,2.2018,2.1996,2.2013,2.2018,2.2022,2.203,2.1898,2.2021,2.202,2.202,2.202,2.2019,0,2.193,2.1931,2.1953,2.1969,2.1989,2.1961,2.1972,2.199,2.202,2.2028,2.2047,2.208,2.2104,2.2099,2.2122,2.2145,2.2133,2.2152,2.215,2.2152,2.2047,2.2035,2.2161,2.2161,2.2161,2.2161,2.2161,2.2161,2.1998,2.2043,2.2035,2.2083,2.2083,2.2115,2.2124,2.2135,2.2141,2.2179,2.2199,2.2195,2.2199,2.2222,2.2244,2.2242,2.2253,2.2276,2.227,2.2173,2.2159,2.2145,2.2134,2.2278,2.2278,2.2372,2.2373,2.2373]},{"header":{"parameterUnit":"m.s-1","parameterCategory":1,"la1":30.2991,"la2":30.254,"lo1":-89.0895,"lo2":-89.0444,"dy":0.0017,"dx":0.0017,"nx":28,"ny":28,"refTime":"2025-01-17T09:00:00:Z","depth":0,"parameterNumber":3,"parameterNumberName":"V-component_of_WINDS"},"data":[0,0,0,0,0,0,0,0,0,0,0,0,0,0,0,0,0,0,0,0,0,0,0,0,0,0,0,0,0,0,0,0,0,0,0,0,0,0,0,0,0,0,0,0,0,0,0,0,0,0,0,0,0,0,0,0,0,0,0.2829,0.2832,0,0.3054,0.3057,0.3059,0.3089,0.3087,0.3085,0.3083,0.3313,0.3321,0.3329,0,0,0,0,0,0,0,0,0,0,0,0,0,0.2422,0.2429,0.2829,0.2832,0.2835,0.3054,0.3057,0.306,0.3089,0.3087,0.3084,0.3082,0.331,0.332,0.3329,0,0,0,0,0,0,0,0,0,0,0,0,0,0.2618,0.2432,0.2828,0.2876,0.2882,0.3053,0.3057,0.3061,0.309,0.3087,0.3084,0.3081,0.3307,0.3319,0.3331,0.347,0,0,0.3368,0.3373,0,0,0,0,0,0,0,0,0.2607,0.2633,0.2866,0.2873,0.288,0.304,0.2998,0.3198,0.3091,0.3011,0.3083,0.3079,0.3225,0.3243,0.3293,0.3481,0.3491,0.3369,0.3377,0.3382,0.3385,0,0,0,0,0,0,0,0.2593,0.2624,0.2918,0.2869,0.2878,0.2885,0.2909,0.3036,0.3133,0.3018,0.302,0.3047,0.3228,0.3281,0.3298,0.3494,0.3369,0.338,0.3387,0.3392,0.3807,0.381,0,0,0,0,0,0,0.2571,0.2612,0.2911,0.2925,0.2733,0.2895,0.2922,0.2992,0.3132,0.315,0.3049,0.3047,0.3262,0.3284,0.3307,0.3479,0.3382,0.3393,0.34,0.3803,0.3808,0.3812,0,0,0,0,0,0,0.2562,0.2598,0.2902,0.2769,0.2809,0.2905,0.2984,0.2998,0.3051,0.3156,0.3173,0.3086,0.326,0.3289,0.3429,0.3487,0.3399,0.341,0.3799,0.3805,0.381,0.3825,0,0,0,0,0,0,0.2551,0.2594,0.2649,0.277,0.2815,0.3022,0.2987,0.3005,0.3072,0.3072,0.3194,0.3212,0.326,0.3411,0.3441,0.3502,0.3419,0.3794,0.3801,0.3808,0.3819,0.383,0.3839,0,0,0,0,0,0.2536,0.2644,0.2652,0.2688,0.2886,0.3025,0.3051,0.3104,0.3077,0.3132,0.3199,0.3208,0.3475,0.3425,0.3459,0.3525,0.3791,0.3799,0.3808,0.3815,0.3828,0.3839,0,0,0,0,0,0,0.2528,0.2661,0.2671,0.2822,0.2912,0.303,0.3101,0.3116,0.3216,0.3211,0.3273,0.33,0.3437,0.3495,0.3436,0.3667,0.3631,0.3646,0.3624,0.3637,0.3647,0.3631,0.3429,0,0,0,0,0,0.2543,0.2646,0.2756,0.2879,0.2923,0.3004,0.3067,0.31,0.3196,0.3234,0.3311,0.3403,0.3507,0.3575,0.3678,0.3827,0.3854,0.3889,0.3899,0.3906,0.392,0.4002,0.4019,0.3839,0.3839,0.3839,0,0,0.2577,0.2663,0.2724,0.2879,0.2953,0.3057,0.3036,0.3147,0.3225,0.3251,0.3388,0.3447,0.3553,0.3698,0.3766,0.3751,0.3975,0.3917,0.3922,0.3932,0.4012,0.4029,0.4044,0.3845,0.3844,0.3843,0,0,0.2692,0.2767,0.2877,0.2951,0.3062,0.3115,0.3141,0.3256,0.3297,0.3435,0.3456,0.3548,0.3728,0.3803,0.3864,0.4004,0.4016,0.4035,0.4087,0.4167,0.4181,0.4194,0.4244,0.4261,0.4048,0.4048,0.4048,0,0.272,0.2878,0.2931,0.3042,0.3109,0.3136,0.3248,0.3316,0.3455,0.3501,0.3482,0.3706,0.378,0.3942,0.3976,0.4025,0.4056,0.4023,0.4175,0.4188,0.4201,0.425,0.4268,0.405,0.4049,0.4049,0.4049,0,0.2907,0.3015,0.3091,0.3224,0.33,0.341,0.3479,0.3549,0.3574,0.3629,0.3768,0.3857,0.3977,0.4018,0.4044,0.4184,0.4171,0.4162,0.4128,0.4219,0.4266,0.4285,0.4052,0.4052,0.4051,0.4051,0,0,0.3025,0.3185,0.3212,0.3272,0.3396,0.3481,0.3591,0.3708,0.3767,0.3861,0.3955,0.4105,0.4097,0.4167,0.4201,0.4271,0.4376,0.4254,0.4257,0.4274,0.4535,0.4541,0.4562,0.4383,0.4387,0.439,0.4526,0,0.3155,0.3353,0.3404,0.3573,0.3673,0.3699,0.3795,0.3881,0.3934,0.4026,0.4084,0.419,0.4172,0.4214,0.4283,0.4348,0.4429,0.4339,0.4471,0.4475,0.4445,0.4586,0.4594,0.4718,0.4544,0.4547,0.455,0,0.3333,0.3431,0.361,0.3719,0.3763,0.3849,0.396,0.4048,0.4144,0.4178,0.4254,0.4282,0.4396,0.4354,0.4513,0.445,0.4506,0.4546,0.4552,0.4568,0.4519,0.4607,0.4759,0.4778,0.4579,0.4577,0.4574,0,0.3402,0.3578,0.3708,0.3758,0.3889,0.3948,0.4005,0.4099,0.4166,0.4262,0.4306,0.4414,0.4474,0.4556,0.4611,0.4575,0.4765,0.4728,0.4796,0.4795,0.4837,0.4834,0.5002,0.4871,0.4871,0.487,0.487,0,0.3543,0.3651,0.3741,0.3821,0.3942,0.3998,0.4116,0.4174,0.4257,0.4347,0.4375,0.446,0.4527,0.462,0.4664,0.4788,0.4815,0.4845,0.4855,0.4844,0.484,0.4883,0.4876,0.4875,0.4874,0.4873,0.4872,0,0.3642,0.3706,0.3849,0.396,0.399,0.4075,0.417,0.4248,0.43,0.4415,0.4445,0.4527,0.4638,0.4701,0.4841,0.487,0.5009,0.5014,0.4976,0.4981,0.5047,0.504,0.525,0.528,0.5127,0.5129,0.513,0,0.3728,0.3812,0.3932,0.3995,0.4053,0.4154,0.4222,0.4278,0.4348,0.4463,0.4527,0.464,0.4733,0.4909,0.4981,0.5087,0.5097,0.5162,0.5113,0.5098,0.5099,0.5094,0.5102,0.5172,0.5173,0.5174,0.5175,0,0.3874,0.3901,0.3999,0.4107,0.4187,0.4275,0.4362,0.4412,0.4483,0.4559,0.4673,0.4745,0.4887,0.4998,0.511,0.5168,0.5184,0.5189,0.5211,0.5201,0.5176,0.5191,0.5001,0.5185,0.5184,0.5183,0.5183,0.5182,0.397,0.4046,0.4142,0.4249,0.432,0.44,0.4479,0.4541,0.4637,0.4757,0.4784,0.4904,0.4996,0.5148,0.5208,0.5302,0.529,0.5322,0.533,0.5337,0.534,0.5159,0.5323,0.5322,0.5322,0.5322,0.5322,0,0.4119,0.4181,0.4279,0.44,0.4484,0.449,0.4586,0.4655,0.4761,0.4846,0.4937,0.5067,0.5174,0.5253,0.5363,0.5423,0.5432,0.545,0.5447,0.546,0.5344,0.5315,0.544,0.544,0.544,0.544,0.544,0.544,0.4206,0.4334,0.4372,0.4535,0.4597,0.4715,0.4769,0.4843,0.4911,0.5055,0.5144,0.5195,0.5278,0.5393,0.5491,0.5512,0.5551,0.5568,0.5589,0.548,0.5468,0.5456,0.5429,0.5576,0.5576,0.5697,0.5698,0.5699]}]]